www.pogodaiklimat.ru

Погода и климат >> Архив погоды >> Россия >> Дагестан >> Махачкала


АРХИВ ПОГОДЫ в Махачкале

Время (UTC), дата Ветер
(напр.,м/с)
 
Видим.   Явления Облачность Т
(С)
Тd
(С)
f
(%)
Тe
(С)
Тes
(С)
Комфортность P
(гПа)
Po
(гПа)
Тmin
(С)
Tmax
(С)
R
(мм)
R24
(мм)
S
(см)
00 20.07 С 1
{10}
10 км гроза, ливневой дождь 10/10 600 м
[Cb cap]
+25.2 +19.0 69 +30 +30 душно 1006.8 1008.9
03 20.07 СВ 2 20 км {гроза} 4/0
[Ac trans Ci fib]
+25.8 +17.9 62 +30 +32 душно 1006.2 1008.3 +24.2 0.4
06 20.07 В 2 10 км {гроза} 3/0
[Ac cast Ci fib]
+26.1 +19.9 69 +32 +43 очень
душно
1006.6 1008.7
09 20.07 ЮВ 1 10 км ясно +27.8 +21.3 68 +35 +58 опасность
солнечного
удара
1006.2 1008.2
12 20.07 В 2 н/о н/о +27.3 +21.5 71 +35 +35 очень
душно
1005.3 1007.4
15 20.07 В 2 10 км 4/0
[Ac cast Ci fib]
+25.8 +21.2 76 +33 +33 очень
душно
1005.0 1007.0 +28.6
18 20.07 ЮВ 2 20 км 4/0
[Ac cast Ci fib]
+24.1 +21.5 85 +31 +31 очень
душно
1006.4 1008.5
21 20.07 ЮВ 2 20 км 6/0
[Ac cast Ci fib]
+24.2 +19.5 75 +29 +29 душно 1006.6 1008.6
00 21.07 ЮЗ 1 20 км ясно +21.9 +18.6 82 +27 +27 душно 1007.0 1009.1
03 21.07 З 1 20 км 3/0
[Ac cast Ci fib]
+25.6 +17.9 62 +30 +31 душно 1008.1 1010.1 +21.9
06 21.07 СЗ 4 10 км 4/0
[Ci fib]
+29.7 +16.0 44 +33 +40 душно 1009.4 1011.4
09 21.07 СЗ 6-11
{11}
10 км ясно +33.2 +14.4 32 +35 +42 душно 1009.5 1011.5
12 21.07 СЗ 5
{12}
10 км ясно +35.0 +14.3 29 +36 +42 очень
жарко
1009.1 1011.1
15 21.07 З 5 н/о н/о +34.2 +15.2 32 +36 +36 душно 1009.2 1011.2 +35.3
18 21.07 В 2 10 км ясно +27.3 +19.6 63 +33 +33 очень
душно
1010.7 1012.7
21 21.07 З 3 10 км ясно +28.4 +15.3 45 +31 +31 душно 1010.5 1012.6
00 22.07 З 4 10 км ясно +28.4 +14.4 42 +31 +31 душно 1011.1 1013.1
03 22.07 З 4 10 км ясно +27.7 +14.7 45 +30 +31 жарко 1011.8 1013.9 +25.7
06 22.07 СЗ 4 20 км 5/0
[Ac cast Ci fib]
+32.2 +13.9 33 +34 +40 душно 1011.9 1013.9 +26.9
09 22.07 СВ 2 20 км 8/0
[Ac cast Ci fib]
+29.7 +23.1 68 +40 +52 опасность
солнечного
удара
1011.5 1013.5
12 22.07 ЮВ 2 20 км 8/0
[Ac cast Ci fib]
+28.5 +23.1 73 +38 +45 очень
душно
1010.3 1012.3
15 22.07 В 1 20 км 8/0
[Ac cast Ci fib]
+27.3 +23.8 81 +37 +38 очень
душно
1009.8 1011.8 +32.7
18 22.07 В 1 10 км 5/0
[Ac cast Ci fib]
+26.1 +22.8 82 +35 +35 очень
душно
1010.0 1012.1
21 22.07 штиль 0 10 км 8/0
[Ac cast Ci fib]
+24.0 +22.2 90 +31 +31 очень
душно
1009.2 1011.3
00 23.07 В 1 4000 м 8/0
[Ac cast Ci fib]
+24.7 +23.2 91 +33 +33 очень
душно
1007.5 1009.6
03 23.07 В 2 10 км {туман} 8/0
[Ac cast Ci fib]
+24.9 +22.8 88 +33 +34 очень
душно
1007.6 1009.6 +22.6
06 23.07 СЗ 4 4000 м дымка {туман} 9/3 600 м
[Cb calv Ac trans Ci fib]
+28.4 +20.9 64 +36 +39 очень
душно
1008.3 1010.3
09 23.07 СЗ 7-13
{13}
10 км 8/3 600 м
[Cb calv Ac trans Ci fib]
+32.1 +18.4 44 +37 +39 очень
душно
1008.5 1010.5
12 23.07 З 8-12
{16}
4000 м дымка 9/3 600 м
[Cb calv Ac trans Ci fib]
+31.6 +16.2 40 +35 +35 очень
душно
1009.4 1011.4
15 23.07 З 5
{15}
10 км 9/8 600 м
[Cb calv Ac trans Ci fib]
+28.4 +15.6 46 +31 +31 душно 1009.9 1012.0 +32.6
18 23.07 ЮЗ 1 10 км в посл. час ливневой дождь {гроза} 9/6 600 м
[Cb calv Ac trans Ci fib]
+23.5 +18.1 72 +28 +28 душно 1011.9 1014.0
21 23.07 З 2 20 км {гроза} 3/0
[Ac trans Ci fib]
+23.4 +17.1 68 +29 +29 душно 1011.1 1013.2
00 24.07 СЗ 3 20 км {гроза} 3/0
[Ac trans Ci fib]
+22.9 +16.5 67 +28 +28 душно 1010.9 1013.0
03 24.07 З 2 20 км 9/0
[Ac trans Ci fib]
+22.7 +16.4 68 +27 +28 душно 1011.7 1013.8 +21.8 0.3
06 24.07 СЗ 6
{12}
20 км 3/0
[Ac cast Ci fib]
+27.9 +14.5 44 +30 +34 жарко 1011.4 1013.5
09 24.07 СЗ 5
{11}
20 км 3/0
[Ac cast Ci fib]
+30.2 +14.0 37 +32 +41 жарко 1010.7 1012.7
12 24.07 В 2 10 км 5/3 600 м
[Cu hum Ac cast Ci fib]
+28.2 +19.2 58 +34 +40 очень
душно
1010.8 1012.9
15 24.07 В 2 10 км 3/0
[Ci fib]
+25.9 +19.5 68 +31 +32 очень
душно
1010.5 1012.6 +30.9
18 24.07 Ю 1 20 км ясно +24.0 +18.2 70 +28 +28 душно 1010.4 1012.5
21 24.07 З 1 20 км ясно +20.8 +16.1 74 +25 +25 комфорт 1009.4 1011.5
00 25.07 ЮВ 1 20 км 3/0
[Ci fib]
+24.4 +16.8 63 +28 +28 душно 1008.4 1010.5
03 25.07 В 1 10 км слабый ливневой дождь 10/8 600 м
[Cb cap Ac As]
+23.5 +18.1 72 +28 +28 душно 1008.9 1011.0 +20.2
06 25.07 В 2 10 км {ливн. осадки} 4/0
[Ac cast Ci fib]
+26.7 +20.0 67 +33 +42 очень
душно
1009.0 1011.0
09 25.07 В 3 10 км 3/0
[Ci fib]
+28.8 +20.7 62 +36 +50 очень
душно
1008.0 1010.0
12 25.07 В 2 10 км ясно +28.8 +21.5 65 +37 +47 очень
душно
1007.4 1009.4
15 25.07 В 1 10 км 8/3
[Sc diur, vesp Ac cast Ci fib]
+27.4 +21.9 72 +35 +36 очень
душно
1007.6 1009.6 +29.2 0.3
18 25.07 В 3 10 км 5/0
[Ac lent Ci fib]
+26.1 +21.4 75 +33 +33 очень
душно
1008.0 1010.0
21 25.07 ЮВ 1 н/о н/о +25.2 +20.8 77 +32 +32 очень
душно
1008.2 1010.3
00 26.07 З 1 10 км ясно +22.1 +19.9 87 +28 +28 душно 1007.8 1009.9
03 26.07 СЗ 1 10 км ясно +22.9 +18.9 78 +29 +31 очень
душно
1008.8 1010.8 +21.3
06 26.07 СВ 2 20 км 4/4
[Cu med, cong]
+28.3 +21.5 67 +36 +43 очень
душно
1008.8 1010.8
09 26.07 СВ 3 20 км 6/0
[Ac cast Ci fib]
+29.2 +20.8 61 +36 +48 очень
душно
1008.8 1010.8
12 26.07 В 3 20 км 5/0
[Ac cast Ci fib]
+29.1 +21.2 62 +37 +43 очень
душно
1008.5 1010.5
15 26.07 В 2 20 км 4/0
[Ac cast Ci fib]
+27.5 +21.0 68 +35 +35 очень
душно
1008.1 1010.1 +29.7
18 26.07 В 1 10 км 8/0
[Ac cast Ci fib]
+25.4 +20.8 76 +32 +32 очень
душно
1009.0 1011.1
21 26.07 ЮЗ 1 10 км 6/0
[Ac cast Ci fib]
+21.8 +18.4 81 +27 +27 душно 1009.2 1011.3

 

Местоположение метеостанции Махачкала (Дагестан, Россия): широта 43.02 долгота 47.48 высота над уровнем моря -19 м.

В архиве по умолчанию представлена погода в Махачкале за последнюю неделю. Архивные данные за месяц целиком и за предыдущие месяцы, начиная с января 2011 года, Вы можете получить, выбрав интересующий диапазон дат из раскрывающегося списка и нажав кнопку "Ввод!".

Внимание! Время в таблицах - всемирное. Для получения местного времени необходимо прибавить поправку, которая в Махачкале равна 3 ч.

Смотрите также архив погоды в соседних городах и на ближайших метеорологических станциях:

Погода в Буйнакске (Дагестан, Россия) (37 км)
Погода в Сергокале (Дагестан, Россия) (65 км)
Погода в Изберге (Дагестан, Россия) (65 км)
Погода в Куппе (Дагестан, Россия) (73 км)
Погода в Хасавюрте (Дагестан, Россия) (77 км)
Погода в Гунибе (Дагестан, Россия) (81 км)
Погода в Хунзахе (Дагестан, Россия) (81 км)
Погода в Бабаюрте (Дагестан, Россия) (86 км)
Погода в Кумухе (Дагестан, Россия) (104 км)
Погода в Шелковской (Чечня, Россия) (106 км)

Пояснения к столбцам:

Ветер - указаны скорость ветра в м/с - средняя за 10 мин, порывы в срок и между сроками (в фигурных скобках) и направление, откуда дует ветер: С - северный, СВ - северо-восточный, В - восточный, ЮВ - юго-восточный, Ю - южный, ЮЗ - юго-западный, З - западный, СЗ - северо-западный.
Видимость - горизонтальная дальность видимости в метрах или километрах. При видимости от 1 до 10 км при отсутствии осадков обычно наблюдается дымка, при ухудшении видимости до 1 км и менее - туман. В сухую погоду видимость может ухудшаться дымом, пылью или мглою.
Явления - указаны атмосферные явления, наблюдавшиеся в срок или в последний час перед сроком; фигурными скобками обозначены явления, наблюдавшиеся между сроками (за 1-3 часа до срока); квадратными скобками обозначены град или гололедные отложения с указанием их диаметра в мм.
Облачность - указаны через наклонную черту общая и нижняя облачность в баллах и высота нижней границы облаков в метрах; квадратными скобками обозначены формы облаков: Ci - перистые, Cs - перисто-слоистые, Cc - перисто-кучевые, Ac - высококучевые, As - высокослоистые, Sc - слоисто-кучевые, Ns - слоисто-дождевые, Cu - кучевые, Cb - кучево-дождевые. Подробнее классификацию облаков см. в Атласе облаков (PDF).
T - Температура воздуха - температура, измеренная на высоте 2 м над землей.
Td - Температура точки росы - температура, при понижении до которой содержащийся в воздухе водяной пар достигнет насыщения.
f - Относительная влажность воздуха - влажноcть воздуха, измеренная на высоте 2 м над землей.
Te - Эффективная температура - температура, которую ощущает одетый по сезону человек в тени. Характеристика душности погоды. При расчете учитывается влияние влажности воздуха и скорости ветра на теплоощущения человека.
Tes - Эффективная температура на солнце - температура, которую ощущает человек, с поправкой на солнечный нагрев. Характеристика знойности погоды. Зависит от высоты солнца над горизонтом, облачности и скорости ветра. Ночью, в пасмурную погоду, а также при ветре 12 м/с и более поправка равна нулю.
P - Атмосферное давление - приведенное к уровню моря атмосферное давление.
Po - Атмосферное давление - измеренное на уровне метеостанции атмосферное давление.
Tmin - Минимальная температура - минимум температуры воздуха на высоте 2 м над землей.
Tmax - Максимальная температура - максимум температуры воздуха на высоте 2 м над землей.
R - Количество осадков - Количество выпавших осадков за период времени, мм. При наведении курсора мыши на число - период времени, за который выпало указанное количество осадков.
R24 - Количество осадков - Количество выпавших осадков за 24 часа, мм.
S - Снежный покров - Высота снежного покрова, см. При наведении курсора мыши на число - состояние снежного покрова и степень покрытия местности в баллах.